Arlington, TX

3:41 PM CST on February 10, 2016 (GMT -0600)
Grand Prairie Municipal

Weather History for KGPM - May, 2013

Change the Weather History Date:

Thursday, May 23, 2013

  Actual Average (KDFW) Record (KDFW)
Temperature  
Mean Temperature 78 °F 76 °F  
Max Temperature 84 °F 86 °F 96 °F (1996)
Min Temperature 71 °F 66 °F 50 °F (1917)
Degree Days  
Heating Degree Days 0 0  
Month to date heating degree days 6  
Since 1 July heating degree days 2282  
Cooling Degree Days 12 11  
Month to date cooling degree days 187  
Year to date cooling degree days 325  
Growing Degree Days 28 (Base 50)    
Moisture  
Dew Point 67 °F    
Average Humidity 74    
Maximum Humidity 94    
Minimum Humidity 58    
Precipitation  
Precipitation 0.00 in 0.15 in 3.91 in (1908)
Month to date precipitation 3.65  
Year to date precipitation 15.00  
Sea Level Pressure  
Sea Level Pressure 29.98 in    
Wind  
Wind Speed 6 mph (SSE)    
Max Wind Speed 14 mph    
Max Gust Speed 18 mph    
Visibility 7 miles    
Events      
T = Trace of Precipitation, MM = Missing Value Source: NWS Daily Summary

Daily Weather History Graph

Daily Weather History Graph

Search for Another Location

Airport or City:

Trip Planner

Search our weather history database for the weather conditions in past years. The results will help you decide how hot, cold, wet, or windy it might be!

Date:

Astronomy

May. 23, 2013 Rise Set
Actual Time 6:24 AM CDT 8:25 PM CDT
Civil Twilight 5:56 AM CDT 8:53 PM CDT
Nautical Twilight 5:23 AM CDT 9:27 PM CDT
Astronomical Twilight 4:47 AM CDT 10:03 PM CDT
Moon 7:03 PM CDT (5/23) 5:04 AM CDT (5/23)
Length of Visible Light 14h 56m
Length of Day
14h 01m
Waxing Gibbous, 97% of the Moon is Illuminated
May 23
Waxing Gibbous
May 24
Full
May 31
Last Quarter
Jun 8
New
Jun 16
First Quarter

Hourly Weather History & Observations

Time (CDT) Temp. Heat Index Dew Point Humidity Pressure Visibility Wind Dir Wind Speed Gust Speed Precip Events Conditions
12:15 AM 71.6 °F - 60.8 °F 69% 29.94 in 10.0 mi ESE 5.8 mph - N/A   Clear
12:35 AM 71.6 °F - 60.8 °F 69% 29.94 in 10.0 mi ESE 5.8 mph - N/A   Clear
12:55 AM 71.6 °F - 60.8 °F 69% 29.94 in 10.0 mi SE 6.9 mph - N/A   Clear
1:15 AM 71.6 °F - 60.8 °F 69% 29.93 in 10.0 mi SE 8.1 mph - N/A   Clear
1:35 AM 71.6 °F - 60.8 °F 69% 29.93 in 10.0 mi SE 6.9 mph - N/A   Clear
1:55 AM 71.6 °F - 62.6 °F 73% 29.92 in 10.0 mi SSE 9.2 mph - N/A   Clear
2:15 AM 71.6 °F - 62.6 °F 73% 29.92 in 10.0 mi SSE 6.9 mph - N/A   Clear
2:35 AM 71.6 °F - 62.6 °F 73% 29.90 in 10.0 mi SSE 8.1 mph - N/A   Clear
2:55 AM 71.6 °F - 64.4 °F 78% 29.90 in 10.0 mi SSE 6.9 mph - N/A   Clear
3:15 AM 71.6 °F - 64.4 °F 78% 29.91 in 10.0 mi SSE 4.6 mph - N/A   Clear
3:35 AM 71.6 °F - 64.4 °F 78% 29.91 in 10.0 mi SSE 5.8 mph - N/A   Scattered Clouds
3:55 AM 71.6 °F - 66.2 °F 83% 29.91 in 10.0 mi South 6.9 mph - N/A   Clear
4:15 AM 71.6 °F - 68.0 °F 88% 29.91 in 7.0 mi South 6.9 mph - N/A   Clear
4:35 AM 71.6 °F - 68.0 °F 88% 29.91 in 5.0 mi SSE 4.6 mph - N/A   Clear
4:55 AM 71.6 °F - 68.0 °F 88% 29.92 in 5.0 mi SSE 3.5 mph - N/A   Clear
5:15 AM 71.6 °F - 68.0 °F 88% 29.92 in 5.0 mi SSE 6.9 mph - N/A   Clear
5:35 AM 71.6 °F - 68.0 °F 88% 29.92 in 5.0 mi SSE 6.9 mph - N/A   Clear
5:55 AM 71.6 °F - 68.0 °F 88% 29.93 in 4.0 mi SSE 5.8 mph - N/A   Mostly Cloudy
6:15 AM 71.6 °F - 69.8 °F 94% 29.93 in 3.0 mi South 6.9 mph - N/A   Overcast
6:35 AM 71.6 °F - 69.8 °F 94% 29.94 in 2.5 mi SSE 5.8 mph - N/A   Overcast
6:50 AM 73.4 °F - 69.8 °F 88% 29.94 in 3.0 mi SSE 6.9 mph - N/A   Overcast
6:55 AM 71.6 °F - 69.8 °F 94% 29.94 in 2.0 mi SSE 5.8 mph - N/A   Overcast
7:50 AM 73.4 °F - 69.8 °F 88% 29.95 in 5.0 mi South 10.4 mph - N/A   Mostly Cloudy
8:50 AM 75.2 °F - 69.8 °F 83% 29.97 in 7.0 mi South 9.2 mph - N/A   Mostly Cloudy
9:50 AM 77.0 °F - 69.8 °F 78% 30.02 in 7.0 mi SE 5.8 mph - N/A   Mostly Cloudy
10:59 AM 78.8 °F - 68.0 °F 69% 30.05 in 7.0 mi ESE 11.5 mph - N/A   Mostly Cloudy
11:50 AM 78.8 °F - 68.0 °F 69% 30.09 in 7.0 mi East 6.9 mph - N/A   Mostly Cloudy
12:50 PM 80.6 °F 83.9 °F 69.8 °F 70% 30.06 in 7.0 mi ESE 6.9 mph - N/A   Mostly Cloudy
1:50 PM 82.4 °F 86.3 °F 69.8 °F 66% 30.04 in 7.0 mi East 10.4 mph - N/A   Mostly Cloudy
2:50 PM 82.4 °F 86.3 °F 69.8 °F 66% 30.03 in 7.0 mi SE 8.1 mph - N/A   Mostly Cloudy
3:50 PM 84.2 °F 88.4 °F 69.8 °F 62% 30.01 in 7.0 mi ESE 9.2 mph 18.4 mph N/A   Scattered Clouds
4:55 PM 84.2 °F 88.4 °F 69.8 °F 62% 29.99 in 7.0 mi ESE 13.8 mph - N/A   Mostly Cloudy
5:50 PM 82.4 °F 85.4 °F 68.0 °F 62% 29.98 in 7.0 mi ESE 9.2 mph - N/A   Mostly Cloudy
6:55 PM 82.4 °F 84.6 °F 66.2 °F 58% 30.00 in 7.0 mi ESE 4.6 mph - N/A   Mostly Cloudy
7:55 PM 82.4 °F 84.6 °F 66.2 °F 58% 30.03 in 5.0 mi Calm Calm - N/A   Mostly Cloudy
8:55 PM 80.6 °F 83.2 °F 68.0 °F 65% 30.05 in 5.0 mi Calm Calm - N/A   Mostly Cloudy
9:15 PM 80.6 °F 82.7 °F 66.2 °F 61% 30.07 in 7.0 mi Calm Calm - N/A   Clear
9:35 PM 78.8 °F - 66.2 °F 65% 30.07 in 7.0 mi Calm Calm - N/A   Clear
9:55 PM 80.6 °F 82.7 °F 66.2 °F 61% 30.08 in 7.0 mi Calm Calm - N/A   Clear
10:15 PM 78.8 °F - 68.0 °F 69% 30.08 in 7.0 mi SW 5.8 mph - N/A   Clear
10:35 PM 80.6 °F 83.2 °F 68.0 °F 65% 30.08 in 7.0 mi WSW 4.6 mph - N/A   Clear
10:55 PM 78.8 °F - 68.0 °F 69% 30.06 in 5.0 mi South 4.6 mph - N/A   Clear
11:15 PM 77.0 °F - 68.0 °F 74% 30.04 in 5.0 mi SE 5.8 mph - N/A   Clear
11:35 PM 77.0 °F - 68.0 °F 74% 30.01 in 4.0 mi SE 10.4 mph - N/A   Clear
11:55 PM 77.0 °F - 68.0 °F 74% 30.01 in 7.0 mi SE 6.9 mph - N/A   Clear